Simultaneous Nadir Overpasses (SNOs) Predictions

Prediction of SNOs between GOES-14 and NOAA-20 Satellite Orbit:

Table of predicted SNOs for the next 14.0 days since TLE Epoch: 12/14/2024
Index Date Time (GOES-14) GOES-14 Lat,Lon NOAA-20 Lat,Lon Distance(km) Time Diff (sec)
1 12/14/2024 20:25:18 -0.07,-108.42 0.51,-105.87 290.36 80
2 12/16/2024 08:49:48 0.11,-108.46 0.72,-111.14 305.19 80
3 12/17/2024 08:28:25 0.09,-108.46 -0.32,-106.62 209.00 80
4 12/18/2024 20:53:03 -0.12,-108.38 -0.93,-111.92 404.06 80
5 12/19/2024 20:31:41 -0.10,-108.38 0.10,-107.41 110.63 80
6 12/21/2024 08:56:11 0.13,-108.44 1.06,-112.69 483.88 80
7 12/22/2024 08:34:48 0.11,-108.43 0.08,-108.16 30.91 80
8 12/24/2024 20:40:44 -0.13,-108.36 -0.26,-108.95 66.95 80
9 12/25/2024 20:19:21 -0.12,-108.36 0.78,-104.43 447.92 80
10 12/27/2024 08:43:50 0.15,-108.41 0.44,-109.70 146.59 80
